Time,TemperatureF,DewpointF,PressureIn,WindDirection,WindDirectionDegrees,WindSpeedMPH,WindSpeedGustMPH,Humidity,HourlyPrecipIn,Conditions,Clouds,dailyrainin,SoftwareType,DateUTC
2013-01-30 00:02:00,39.0,24.0,30.10,WNW,291,9.0,20.0,54,-99.99,,,-99.99,,2013-01-30 07:02:00,
2013-01-30 00:11:00,39.0,24.0,30.10,WNW,291,9.0,20.0,54,-99.99,,,-99.99,,2013-01-30 07:11:00,
2013-01-30 00:21:00,39.0,24.0,30.09,WNW,285,9.0,18.0,55,-99.99,,,-99.99,,2013-01-30 07:21:00,
2013-01-30 00:32:00,39.0,25.0,30.09,West,277,10.0,23.0,56,-99.99,,,-99.99,,2013-01-30 07:32:00,
2013-01-30 00:41:00,39.0,25.0,30.09,West,277,10.0,23.0,56,-99.99,,,-99.99,,2013-01-30 07:41:00,
2013-01-30 00:52:00,39.0,25.0,30.10,West,273,8.0,19.0,57,-99.99,,,-99.99,,2013-01-30 07:52:00,
2013-01-30 01:01:00,38.0,25.0,30.11,West,280,8.0,20.0,58,-99.99,,,-99.99,,2013-01-30 08:01:00,
2013-01-30 01:11:00,38.0,25.0,30.11,West,280,8.0,20.0,58,-99.99,,,-99.99,,2013-01-30 08:11:00,
2013-01-30 01:21:00,38.0,25.0,30.11,West,276,10.0,24.0,59,-99.99,,,-99.99,,2013-01-30 08:21:00,
2013-01-30 01:32:00,38.0,25.0,30.11,WNW,284,11.0,21.0,59,-99.99,,,-99.99,,2013-01-30 08:32:00,
2013-01-30 01:42:00,38.0,25.0,30.11,WNW,284,11.0,21.0,59,-99.99,,,-99.99,,2013-01-30 08:42:00,
2013-01-30 01:52:00,38.0,25.0,30.12,West,277,11.0,31.0,59,-99.99,,,-99.99,,2013-01-30 08:52:00,
2013-01-30 02:01:00,38.0,25.0,30.13,WSW,250,10.0,22.0,60,-99.99,,,-99.99,,2013-01-30 09:01:00,
2013-01-30 02:11:00,38.0,25.0,30.13,WSW,250,10.0,22.0,60,-99.99,,,-99.99,,2013-01-30 09:11:00,
2013-01-30 02:21:00,38.0,25.0,30.14,West,264,9.0,20.0,60,-99.99,,,-99.99,,2013-01-30 09:21:00,
2013-01-30 02:32:00,38.0,26.0,30.13,West,277,8.0,19.0,62,-99.99,,,-99.99,,2013-01-30 09:32:00,
2013-01-30 02:41:00,38.0,26.0,30.13,West,277,8.0,19.0,62,-99.99,,,-99.99,,2013-01-30 09:41:00,
2013-01-30 02:51:00,37.0,25.0,30.14,West,278,9.0,19.0,62,-99.99,,,-99.99,,2013-01-30 09:51:00,
2013-01-30 03:01:00,37.0,26.0,30.15,West,278,9.0,16.0,63,-99.99,,,-99.99,,2013-01-30 10:01:00,
2013-01-30 03:11:00,37.0,26.0,30.15,West,278,9.0,16.0,63,-99.99,,,-99.99,,2013-01-30 10:11:00,
2013-01-30 03:21:00,37.0,26.0,30.16,WSW,253,8.0,15.0,64,-99.99,,,-99.99,,2013-01-30 10:21:00,
2013-01-30 03:32:00,37.0,26.0,30.16,WNW,284,5.0,17.0,65,-99.99,,,-99.99,,2013-01-30 10:32:00,
2013-01-30 03:41:00,37.0,26.0,30.16,WNW,284,5.0,17.0,65,-99.99,,,-99.99,,2013-01-30 10:41:00,
2013-01-30 03:52:00,37.0,27.0,30.17,NE,39,3.0,9.0,66,-99.99,,,-99.99,,2013-01-30 10:52:00,
2013-01-30 04:02:00,37.0,27.0,30.17,NW,319,1.0,6.0,66,-99.99,,,-99.99,,2013-01-30 11:02:00,
2013-01-30 04:11:00,37.0,27.0,30.17,NW,319,1.0,6.0,66,-99.99,,,-99.99,,2013-01-30 11:11:00,
2013-01-30 04:22:00,37.0,27.0,30.18,NW,316,2.0,8.0,66,-99.99,,,-99.99,,2013-01-30 11:22:00,
2013-01-30 04:32:00,37.0,27.0,30.17,NW,322,4.0,9.0,66,-99.99,,,-99.99,,2013-01-30 11:32:00,
2013-01-30 04:42:00,37.0,27.0,30.17,NW,322,4.0,9.0,66,-99.99,,,-99.99,,2013-01-30 11:42:00,
2013-01-30 04:52:00,37.0,27.0,30.18,WNW,284,4.0,11.0,67,-99.99,,,-99.99,,2013-01-30 11:52:00,
2013-01-30 05:02:00,37.0,26.0,30.20,NNW,329,1.0,5.0,64,-99.99,,,-99.99,,2013-01-30 12:02:00,
2013-01-30 05:12:00,37.0,26.0,30.20,NNW,329,1.0,5.0,64,-99.99,,,-99.99,,2013-01-30 12:12:00,
2013-01-30 05:22:00,37.0,26.0,30.20,NW,308,1.0,7.0,64,-99.99,,,-99.99,,2013-01-30 12:22:00,
2013-01-30 05:32:00,36.0,25.0,30.20,North,352,3.0,8.0,63,-99.99,,,-99.99,,2013-01-30 12:32:00,
2013-01-30 05:42:00,36.0,25.0,30.20,North,352,3.0,8.0,63,-99.99,,,-99.99,,2013-01-30 12:42:00,
2013-01-30 06:03:00,37.0,24.0,30.20,NNW,338,3.0,10.0,58,-99.99,,,-99.99,,2013-01-30 13:03:00,
2013-01-30 06:12:00,37.0,24.0,30.20,NNW,338,3.0,10.0,58,-99.99,,,-99.99,,2013-01-30 13:12:00,
2013-01-30 06:23:00,36.0,23.0,30.21,NW,323,2.0,7.0,59,-99.99,,,-99.99,,2013-01-30 13:23:00,
2013-01-30 06:33:00,36.0,23.0,30.22,NNW,339,1.0,6.0,59,-99.99,,,-99.99,,2013-01-30 13:33:00,
2013-01-30 06:42:00,36.0,23.0,30.22,NNW,339,1.0,6.0,59,-99.99,,,-99.99,,2013-01-30 13:42:00,
2013-01-30 06:52:00,35.0,23.0,30.24,NNW,335,1.0,6.0,62,-99.99,,,-99.99,,2013-01-30 13:52:00,
2013-01-30 07:02:00,35.0,24.0,30.24,NW,319,2.0,8.0,63,-99.99,,,-99.99,,2013-01-30 14:02:00,
2013-01-30 07:12:00,35.0,24.0,30.24,NW,319,2.0,8.0,63,-99.99,,,-99.99,,2013-01-30 14:12:00,
2013-01-30 07:22:00,35.0,24.0,30.26,North,350,0.0,4.0,64,-99.99,,,-99.99,,2013-01-30 14:22:00,
2013-01-30 07:32:00,34.0,23.0,30.27,WNW,285,1.0,3.0,65,-99.99,,,-99.99,,2013-01-30 14:32:00,
2013-01-30 07:42:00,34.0,23.0,30.27,WNW,285,1.0,3.0,65,-99.99,,,-99.99,,2013-01-30 14:42:00,
2013-01-30 07:52:00,34.0,24.0,30.27,WNW,295,0.0,3.0,66,-99.99,,,-99.99,,2013-01-30 14:52:00,
2013-01-30 08:03:00,36.0,24.0,30.28,West,278,1.0,6.0,61,-99.99,,,-99.99,,2013-01-30 15:03:00,
2013-01-30 08:12:00,36.0,24.0,30.28,West,278,1.0,6.0,61,-99.99,,,-99.99,,2013-01-30 15:12:00,
2013-01-30 08:23:00,37.0,24.0,30.29,NNW,345,0.0,4.0,58,-99.99,,,-99.99,,2013-01-30 15:23:00,
2013-01-30 08:33:00,39.0,23.0,30.29,North,354,0.0,1.0,53,-99.99,,,-99.99,,2013-01-30 15:33:00,
2013-01-30 08:43:00,39.0,23.0,30.29,North,354,0.0,1.0,53,-99.99,,,-99.99,,2013-01-30 15:43:00,
2013-01-30 08:52:00,39.0,22.0,30.29,WNW,288,3.0,9.0,51,-99.99,,,-99.99,,2013-01-30 15:52:00,
2013-01-30 09:03:00,40.0,21.0,30.31,NW,323,0.0,4.0,47,-99.99,,,-99.99,,2013-01-30 16:03:00,
2013-01-30 09:12:00,40.0,21.0,30.31,NW,323,0.0,4.0,47,-99.99,,,-99.99,,2013-01-30 16:12:00,
2013-01-30 09:23:00,41.0,22.0,30.31,NNW,330,2.0,6.0,47,-99.99,,,-99.99,,2013-01-30 16:23:00,
2013-01-30 09:32:00,41.0,21.0,30.31,North,354,6.0,12.0,45,-99.99,,,-99.99,,2013-01-30 16:32:00,
2013-01-30 09:42:00,41.0,21.0,30.31,North,354,6.0,12.0,45,-99.99,,,-99.99,,2013-01-30 16:42:00,
2013-01-30 09:52:00,41.0,21.0,30.31,North,354,6.0,12.0,45,-99.99,,,-99.99,,2013-01-30 16:52:00,
2013-01-30 10:02:00,43.0,22.0,30.31,WNW,290,2.0,8.0,42,-99.99,,,-99.99,,2013-01-30 17:02:00,
2013-01-30 10:12:00,43.0,22.0,30.31,WNW,290,2.0,8.0,42,-99.99,,,-99.99,,2013-01-30 17:12:00,
2013-01-30 10:22:00,43.0,21.0,30.30,North,354,2.0,8.0,41,-99.99,,,-99.99,,2013-01-30 17:22:00,
2013-01-30 10:32:00,44.0,20.0,30.30,WSW,255,4.0,8.0,38,-99.99,,,-99.99,,2013-01-30 17:32:00,
2013-01-30 10:42:00,44.0,20.0,30.30,WSW,255,4.0,8.0,38,-99.99,,,-99.99,,2013-01-30 17:42:00,
2013-01-30 10:53:00,44.0,21.0,30.30,North,349,4.0,9.0,39,-99.99,,,-99.99,,2013-01-30 17:53:00,
2013-01-30 11:02:00,44.0,19.0,30.30,NW,315,4.0,11.0,36,-99.99,,,-99.99,,2013-01-30 18:02:00,
2013-01-30 11:12:00,44.0,19.0,30.30,NW,315,4.0,11.0,36,-99.99,,,-99.99,,2013-01-30 18:12:00,
2013-01-30 11:22:00,44.0,19.0,30.29,West,271,5.0,10.0,36,-99.99,,,-99.99,,2013-01-30 18:22:00,
2013-01-30 11:33:00,45.0,20.0,30.29,WNW,283,4.0,9.0,37,-99.99,,,-99.99,,2013-01-30 18:33:00,
2013-01-30 11:42:00,45.0,20.0,30.29,WNW,283,4.0,9.0,37,-99.99,,,-99.99,,2013-01-30 18:42:00,
2013-01-30 11:53:00,45.0,19.0,30.29,WSW,257,5.0,12.0,35,-99.99,,,-99.99,,2013-01-30 18:53:00,
2013-01-30 12:02:00,45.0,18.0,30.28,WNW,301,5.0,11.0,34,-99.99,,,-99.99,,2013-01-30 19:02:00,
2013-01-30 12:12:00,45.0,18.0,30.28,WNW,301,5.0,11.0,34,-99.99,,,-99.99,,2013-01-30 19:12:00,
2013-01-30 12:22:00,46.0,17.0,30.28,WNW,290,4.0,11.0,31,-99.99,,,-99.99,,2013-01-30 19:22:00,
2013-01-30 12:32:00,46.0,19.0,30.28,West,277,6.0,12.0,33,-99.99,,,-99.99,,2013-01-30 19:32:00,
2013-01-30 12:43:00,46.0,19.0,30.28,West,277,6.0,12.0,33,-99.99,,,-99.99,,2013-01-30 19:43:00,
2013-01-30 12:53:00,46.0,16.0,30.27,WNW,283,5.0,13.0,30,-99.99,,,-99.99,,2013-01-30 19:53:00,
2013-01-30 13:03:00,47.0,15.0,30.26,West,273,6.0,10.0,27,-99.99,,,-99.99,,2013-01-30 20:03:00,
2013-01-30 13:12:00,47.0,15.0,30.26,West,273,6.0,10.0,27,-99.99,,,-99.99,,2013-01-30 20:12:00,
2013-01-30 13:22:00,48.0,17.0,30.24,NNW,338,5.0,16.0,29,-99.99,,,-99.99,,2013-01-30 20:22:00,
2013-01-30 13:33:00,48.0,17.0,30.24,WSW,250,6.0,11.0,29,-99.99,,,-99.99,,2013-01-30 20:33:00,
2013-01-30 13:42:00,48.0,17.0,30.24,WSW,250,6.0,11.0,29,-99.99,,,-99.99,,2013-01-30 20:42:00,
2013-01-30 13:53:00,48.0,17.0,30.22,WSW,243,2.0,8.0,29,-99.99,,,-99.99,,2013-01-30 20:53:00,
2013-01-30 14:03:00,48.0,15.0,30.22,SW,236,5.0,9.0,26,-99.99,,,-99.99,,2013-01-30 21:03:00,
2013-01-30 14:12:00,48.0,15.0,30.22,SW,236,5.0,9.0,26,-99.99,,,-99.99,,2013-01-30 21:12:00,
2013-01-30 14:23:00,50.0,15.0,30.21,West,271,4.0,10.0,24,-99.99,,,-99.99,,2013-01-30 21:23:00,
2013-01-30 14:32:00,50.0,14.0,30.20,WNW,287,5.0,10.0,23,-99.99,,,-99.99,,2013-01-30 21:32:00,
2013-01-30 14:42:00,50.0,14.0,30.20,WNW,287,5.0,10.0,23,-99.99,,,-99.99,,2013-01-30 21:42:00,
2013-01-30 14:52:00,51.0,16.0,30.19,SW,236,5.0,11.0,24,-99.99,,,-99.99,,2013-01-30 21:52:00,
2013-01-30 15:02:00,51.0,15.0,30.19,WNW,288,6.0,12.0,23,-99.99,,,-99.99,,2013-01-30 22:02:00,
2013-01-30 15:12:00,51.0,15.0,30.19,WNW,288,6.0,12.0,23,-99.99,,,-99.99,,2013-01-30 22:12:00,
2013-01-30 15:22:00,51.0,15.0,30.17,WNW,287,6.0,13.0,23,-99.99,,,-99.99,,2013-01-30 22:22:00,
2013-01-30 15:32:00,51.0,15.0,30.17,WNW,290,3.0,11.0,23,-99.99,,,-99.99,,2013-01-30 22:32:00,
2013-01-30 15:42:00,51.0,15.0,30.17,WNW,290,3.0,11.0,23,-99.99,,,-99.99,,2013-01-30 22:42:00,
2013-01-30 15:53:00,51.0,15.0,30.17,West,281,5.0,9.0,23,-99.99,,,-99.99,,2013-01-30 22:53:00,
2013-01-30 16:02:00,52.0,15.0,30.17,West,281,3.0,11.0,23,-99.99,,,-99.99,,2013-01-30 23:02:00,
2013-01-30 16:12:00,52.0,15.0,30.17,West,281,3.0,11.0,23,-99.99,,,-99.99,,2013-01-30 23:12:00,
2013-01-30 16:22:00,51.0,15.0,30.17,West,280,4.0,10.0,23,-99.99,,,-99.99,,2013-01-30 23:22:00,
2013-01-30 16:32:00,52.0,15.0,30.17,WSW,256,3.0,8.0,23,-99.99,,,-99.99,,2013-01-30 23:32:00,
2013-01-30 16:42:00,52.0,15.0,30.17,WSW,256,3.0,8.0,23,-99.99,,,-99.99,,2013-01-30 23:42:00,
2013-01-30 16:52:00,51.0,15.0,30.18,WNW,301,3.0,8.0,23,-99.99,,,-99.99,,2013-01-30 23:52:00,
2013-01-30 17:02:00,51.0,16.0,30.18,West,276,3.0,10.0,24,-99.99,,,-99.99,,2013-01-31 00:02:00,
2013-01-30 17:11:00,51.0,16.0,30.18,West,276,3.0,10.0,24,-99.99,,,-99.99,,2013-01-31 00:11:00,
2013-01-30 17:22:00,51.0,16.0,30.18,West,269,3.0,8.0,24,-99.99,,,-99.99,,2013-01-31 00:22:00,
2013-01-30 17:32:00,50.0,16.0,30.18,West,270,1.0,9.0,25,-99.99,,,-99.99,,2013-01-31 00:32:00,
2013-01-30 17:42:00,50.0,16.0,30.18,West,270,1.0,9.0,25,-99.99,,,-99.99,,2013-01-31 00:42:00,
2013-01-30 17:53:00,50.0,16.0,30.18,WNW,295,2.0,7.0,26,-99.99,,,-99.99,,2013-01-31 00:53:00,
2013-01-30 18:02:00,49.0,16.0,30.19,WNW,288,1.0,4.0,27,-99.99,,,-99.99,,2013-01-31 01:02:00,
2013-01-30 18:11:00,49.0,16.0,30.19,WNW,288,1.0,4.0,27,-99.99,,,-99.99,,2013-01-31 01:11:00,
2013-01-30 18:21:00,49.0,17.0,30.19,North,0,0.0,0.0,28,-99.99,,,-99.99,,2013-01-31 01:21:00,
2013-01-30 18:31:00,48.0,17.0,30.19,North,0,0.0,0.0,29,-99.99,,,-99.99,,2013-01-31 01:31:00,
2013-01-30 18:42:00,48.0,17.0,30.19,North,0,0.0,0.0,29,-99.99,,,-99.99,,2013-01-31 01:42:00,
2013-01-30 18:52:00,48.0,19.0,30.19,West,277,3.0,9.0,31,-99.99,,,-99.99,,2013-01-31 01:52:00,
2013-01-30 19:01:00,48.0,19.0,30.19,West,274,1.0,7.0,31,-99.99,,,-99.99,,2013-01-31 02:01:00,
2013-01-30 19:11:00,48.0,19.0,30.19,West,274,1.0,7.0,31,-99.99,,,-99.99,,2013-01-31 02:11:00,
2013-01-30 19:21:00,47.0,19.0,30.20,West,270,0.0,3.0,32,-99.99,,,-99.99,,2013-01-31 02:21:00,
2013-01-30 19:32:00,47.0,19.0,30.20,West,274,0.0,3.0,33,-99.99,,,-99.99,,2013-01-31 02:32:00,
2013-01-30 19:41:00,47.0,19.0,30.20,West,274,0.0,3.0,33,-99.99,,,-99.99,,2013-01-31 02:41:00,
2013-01-30 19:52:00,47.0,19.0,30.20,West,274,0.0,3.0,33,-99.99,,,-99.99,,2013-01-31 02:52:00,
2013-01-30 20:03:00,47.0,19.0,30.20,North,0,0.0,0.0,33,-99.99,,,-99.99,,2013-01-31 03:03:00,
2013-01-30 20:11:00,47.0,19.0,30.20,North,0,0.0,0.0,33,-99.99,,,-99.99,,2013-01-31 03:11:00,
2013-01-30 20:21:00,46.0,21.0,30.21,North,0,0.0,0.0,36,-99.99,,,-99.99,,2013-01-31 03:21:00,
2013-01-30 20:32:00,45.0,21.0,30.21,North,0,0.0,0.0,38,-99.99,,,-99.99,,2013-01-31 03:32:00,
2013-01-30 20:41:00,45.0,21.0,30.21,North,0,0.0,0.0,38,-99.99,,,-99.99,,2013-01-31 03:41:00,
2013-01-30 20:52:00,43.0,20.0,30.22,North,0,0.0,0.0,39,-99.99,,,-99.99,,2013-01-31 03:52:00,
2013-01-30 21:02:00,43.0,21.0,30.22,North,0,0.0,0.0,41,-99.99,,,-99.99,,2013-01-31 04:02:00,
2013-01-30 21:11:00,43.0,21.0,30.22,North,0,0.0,0.0,41,-99.99,,,-99.99,,2013-01-31 04:11:00,
2013-01-30 21:22:00,42.0,23.0,30.22,North,0,0.0,0.0,46,-99.99,,,-99.99,,2013-01-31 04:22:00,
2013-01-30 21:31:00,41.0,20.0,30.22,North,0,0.0,0.0,43,-99.99,,,-99.99,,2013-01-31 04:31:00,
2013-01-30 21:41:00,41.0,20.0,30.22,North,0,0.0,0.0,43,-99.99,,,-99.99,,2013-01-31 04:41:00,
2013-01-30 21:52:00,41.0,21.0,30.22,North,0,0.0,0.0,44,-99.99,,,-99.99,,2013-01-31 04:52:00,
2013-01-30 22:03:00,41.0,20.0,30.22,North,0,0.0,0.0,43,-99.99,,,-99.99,,2013-01-31 05:03:00,
2013-01-30 22:10:00,41.0,23.0,30.23,North,0,0.0,0.0,48,-99.99,,,-99.99,,2013-01-31 05:10:00,
2013-01-30 22:11:00,41.0,20.0,30.22,North,0,0.0,0.0,43,-99.99,,,-99.99,,2013-01-31 05:11:00,
2013-01-30 22:22:00,42.0,22.0,30.23,North,0,0.0,0.0,44,-99.99,,,-99.99,,2013-01-31 05:22:00,
2013-01-30 22:32:00,42.0,22.0,30.23,North,0,0.0,0.0,44,-99.99,,,-99.99,,2013-01-31 05:32:00,
2013-01-30 22:41:00,41.0,23.0,30.23,North,0,0.0,0.0,48,-99.99,,,-99.99,,2013-01-31 05:41:00,
2013-01-30 22:52:00,41.0,23.0,30.23,North,0,0.0,0.0,48,-99.99,,,-99.99,,2013-01-31 05:52:00,
2013-01-30 23:01:00,41.0,23.0,30.23,North,0,0.0,0.0,48,-99.99,,,-99.99,,2013-01-31 06:01:00,